Estación de Purranque
Ultimos registro cada 15 minutos 75
| N° | Estación | Fecha / Hora | Temperatura | Humedad | Lluvia | Velocidad | Dirección | Radiación | Presion |
| 75 | Purranque | 06-09-2026 19:30 | 9,7 | 62,9 | 0 | 0,3 | 180 | 5,6 | 1003,4 |
| 74 | Purranque | 06-09-2026 19:15 | 11,5 | 56,7 | 0 | 1 | 181 | 11,9 | 1003,3 |
| 73 | Purranque | 06-09-2026 19:00 | 12,6 | 54,3 | 0 | 1 | 168 | 16,9 | 1003,3 |
| 72 | Purranque | 06-09-2026 18:45 | 15,6 | 44,1 | 0 | 1 | 122 | 71,9 | 1003,2 |
| 71 | Purranque | 06-09-2026 18:30 | 16,2 | 40,2 | 0 | 1 | 124 | 125,6 | 1003,2 |
| 70 | Purranque | 06-09-2026 18:15 | 16,7 | 41,2 | 0 | 1 | 124 | 168,1 | 1003,2 |
| 69 | Purranque | 06-09-2026 18:00 | 16,1 | 39,5 | 0 | 1,3 | 188 | 211,9 | 1003,2 |
| 68 | Purranque | 06-09-2026 17:45 | 15,8 | 45,7 | 0 | 1,7 | 206 | 259,4 | 1003,2 |
| 67 | Purranque | 06-09-2026 17:30 | 15,9 | 40,3 | 0 | 2 | 208 | 304,4 | 1003,4 |
| 66 | Purranque | 06-09-2026 17:15 | 15,9 | 46,3 | 0 | 2 | 220 | 348,1 | 1003,4 |
| 65 | Purranque | 06-09-2026 17:00 | 16 | 42,5 | 0 | 2,3 | 226 | 393,1 | 1003,4 |
| 64 | Purranque | 06-09-2026 16:45 | 16 | 41,6 | 0 | 1,7 | 192 | 435,6 | 1003,5 |
| 63 | Purranque | 06-09-2026 16:30 | 16,4 | 36,2 | 0 | 1,7 | 198 | 475,6 | 1003,7 |
| 62 | Purranque | 06-09-2026 16:15 | 16,4 | 40,8 | 0 | 2,3 | 201 | 514,4 | 1003,9 |
| 61 | Purranque | 06-09-2026 16:00 | 16,1 | 38,3 | 0 | 2,3 | 190 | 548,1 | 1004 |
| 60 | Purranque | 06-09-2026 15:45 | 17,2 | 42 | 0 | 1 | 65 | 583,1 | 1004,1 |
| 59 | Purranque | 06-09-2026 15:30 | 16,6 | 33,3 | 0 | 1 | 52 | 616,9 | 1004,4 |
| 58 | Purranque | 06-09-2026 15:15 | 16,4 | 34,3 | 0 | 0,7 | 136 | 640,6 | 1004,6 |
| 57 | Purranque | 06-09-2026 15:00 | 16,7 | 33 | 0 | 1 | 306 | 666,9 | 1004,9 |
| 56 | Purranque | 06-09-2026 14:45 | 16,2 | 34,1 | 0 | 0,7 | 14 | 685,6 | 1005,1 |
| 55 | Purranque | 06-09-2026 14:30 | 16,7 | 33,8 | 0 | 1,3 | 65 | 703,1 | 1005,4 |
| 54 | Purranque | 06-09-2026 14:15 | 16,5 | 34,1 | 0 | 1,3 | 65 | 716,9 | 1005,7 |
| 53 | Purranque | 06-09-2026 14:00 | 15,2 | 35,1 | 0 | 1,3 | 79 | 723,1 | 1006 |
| 52 | Purranque | 06-09-2026 13:45 | 15,2 | 32,8 | 0 | 1,3 | 67 | 728,1 | 1006,3 |
| 51 | Purranque | 06-09-2026 13:30 | 15,3 | 37,3 | 0 | 1,7 | 21 | 729,4 | 1006,5 |
| 50 | Purranque | 06-09-2026 13:15 | 15,1 | 43,1 | 0 | 0,7 | 195 | 728,1 | 1006,8 |
| 49 | Purranque | 06-09-2026 13:00 | 13,4 | 45,8 | 0 | 1,3 | 180 | 718,1 | 1007 |
| 48 | Purranque | 06-09-2026 12:45 | 13,1 | 45 | 0 | 1 | 185 | 706,9 | 1007,3 |
| 47 | Purranque | 06-09-2026 12:30 | 13 | 47,2 | 0 | 1,3 | 194 | 693,1 | 1007,5 |
| 46 | Purranque | 06-09-2026 12:15 | 12,1 | 48,2 | 0 | 1,7 | 201 | 673,1 | 1007,6 |
| 45 | Purranque | 06-09-2026 12:00 | 11,9 | 52 | 0 | 1,7 | 206 | 653,1 | 1007,9 |
| 44 | Purranque | 06-09-2026 11:45 | 11,6 | 58,2 | 0 | 1,7 | 227 | 626,9 | 1008 |
| 43 | Purranque | 06-09-2026 11:30 | 10,5 | 54,3 | 0 | 1,7 | 209 | 598,1 | 1008,3 |
| 42 | Purranque | 06-09-2026 11:15 | 10 | 57,3 | 0 | 1,3 | 208 | 565,6 | 1008,4 |
| 41 | Purranque | 06-09-2026 11:00 | 8,9 | 63,2 | 0 | 1,3 | 222 | 531,9 | 1008,6 |
| 40 | Purranque | 06-09-2026 10:45 | 8,5 | 68,2 | 0 | 0,3 | 170 | 494,4 | 1008,9 |
| 39 | Purranque | 06-09-2026 10:30 | 7,2 | 80,1 | 0 | 0,3 | 170 | 453,1 | 1009,1 |
| 38 | Purranque | 06-09-2026 10:15 | 5,1 | 86,1 | 0 | 0,3 | 180 | 409,4 | 1009,1 |
| 37 | Purranque | 06-09-2026 10:00 | 3,6 | 87,9 | 0 | 0 | 195 | 363,1 | 1009,2 |
| 36 | Purranque | 06-09-2026 09:45 | 1,7 | 93,5 | 0 | 0,3 | 195 | 316,9 | 1009,2 |
| 35 | Purranque | 06-09-2026 09:30 | 0,5 | 95,1 | 0 | 0,3 | 164 | 270,6 | 1009,2 |
| 34 | Purranque | 06-09-2026 09:15 | -0,9 | 96,5 | 0 | 0,7 | 157 | 235,6 | 1009,2 |
| 33 | Purranque | 06-09-2026 09:00 | -1,5 | 97,2 | 0 | 0,7 | 138 | 190,6 | 1009,2 |
| 32 | Purranque | 06-09-2026 08:45 | -2,8 | 98,6 | 0 | 0,7 | 136 | 140,6 | 1009,1 |
| 31 | Purranque | 06-09-2026 08:30 | -3,4 | 99,8 | 0 | 0,7 | 133 | 65,6 | 1009,2 |
| 30 | Purranque | 06-09-2026 08:15 | -3,9 | 99,7 | 0 | 0,3 | 154 | 8,1 | 1009,3 |
| 29 | Purranque | 06-09-2026 08:00 | -4,6 | 99 | 0 | 0,3 | 142 | 1,9 | 1009,3 |
| 28 | Purranque | 06-09-2026 07:45 | -4,2 | 98,9 | 0 | 0,3 | 138 | 0,6 | 1009,5 |
| 27 | Purranque | 06-09-2026 07:30 | -4 | 99,3 | 0 | 0,3 | 138 | 0,6 | 1009,7 |
| 26 | Purranque | 06-09-2026 07:15 | -4 | 99,2 | 0 | 0 | 149 | 0,6 | 1009,9 |
| 25 | Purranque | 06-09-2026 07:00 | -3,8 | 99,1 | 0 | 0,7 | 156 | 0,6 | 1010 |
| 24 | Purranque | 06-09-2026 06:45 | -3,4 | 99,6 | 0 | 0,3 | 195 | 0,6 | 1010,3 |
| 23 | Purranque | 06-09-2026 06:30 | -3,7 | 99,4 | 0 | 0,3 | 160 | 0,6 | 1010,4 |
| 22 | Purranque | 06-09-2026 06:15 | -3,7 | 99,9 | 0 | 0,3 | 131 | 0,6 | 1010,6 |
| 21 | Purranque | 06-09-2026 06:00 | -3,8 | 99,7 | 0 | 0 | 119 | 0,6 | 1010,8 |
| 20 | Purranque | 06-09-2026 05:45 | -2,7 | 99,6 | 0 | 0 | 119 | 0,6 | 1010,8 |
| 19 | Purranque | 06-09-2026 05:30 | -3 | 99,8 | 0 | 0,3 | 122 | 0,6 | 1010,8 |
| 18 | Purranque | 06-09-2026 05:15 | -3,4 | 99,7 | 0 | 0,3 | 139 | 0,6 | 1011 |
| 17 | Purranque | 06-09-2026 05:00 | -3,5 | 99,8 | 0 | 0,3 | 202 | 0,6 | 1011,3 |
| 16 | Purranque | 06-09-2026 04:45 | -2,8 | 99,8 | 0 | 0 | 142 | 0,6 | 1011,6 |
| 15 | Purranque | 06-09-2026 04:30 | -3,2 | 99,2 | 0 | 0,3 | 135 | 0,6 | 1011,8 |
| 14 | Purranque | 06-09-2026 04:15 | -2,8 | 99,7 | 0 | 0,3 | 164 | 0,6 | 1012 |
| 13 | Purranque | 06-09-2026 04:00 | -2,5 | 99,5 | 0 | 0,7 | 145 | 0,6 | 1012,4 |
| 12 | Purranque | 06-09-2026 03:45 | -2,7 | 99,4 | 0 | 0 | 173 | 0,6 | 1012,6 |
| 11 | Purranque | 06-09-2026 03:30 | -2,6 | 97,8 | 0 | 0 | 173 | 0,6 | 1013 |
| 10 | Purranque | 06-09-2026 03:15 | -2,4 | 98 | 0 | 0 | 173 | 0,6 | 1013,4 |
| 9 | Purranque | 06-09-2026 03:00 | -2,4 | 97,6 | 0 | 0 | 173 | 0,6 | 1013,6 |
| 8 | Purranque | 06-09-2026 02:45 | -2,1 | 96,8 | 0 | 0 | 173 | 0,6 | 1013,8 |
| 7 | Purranque | 06-09-2026 02:30 | -1,8 | 96,7 | 0 | 0,3 | 139 | 0,6 | 1014 |
| 6 | Purranque | 06-09-2026 02:15 | -1,2 | 96,2 | 0 | 0,3 | 181 | 0,6 | 1014,3 |
| 5 | Purranque | 06-09-2026 02:00 | -1,4 | 95,1 | 0 | 0,3 | 178 | 0,6 | 1014,6 |
| 4 | Purranque | 06-09-2026 01:45 | -1 | 94,5 | 0 | 0,3 | 118 | 0,6 | 1014,6 |
| 3 | Purranque | 06-09-2026 01:30 | -0,9 | 94,3 | 0 | 1 | 126 | 0,6 | 1015 |
| 2 | Purranque | 06-09-2026 01:15 | -0,8 | 94,3 | 0 | 1,3 | 132 | 0,6 | 1015,1 |
| 1 | Purranque | 06-09-2026 01:00 | -0,7 | 92,5 | 0 | 1 | 146 | 0,6 | 1015,1 |